Main page
METAR-TAF:

METAR-TAF

Airports :

RAF Boulmer

Boulmer, England

latitude: 55-25-19N, longitude: 1-36-12W, elevation: 24 m

Current weather observation

The report was made 59 minutes ago, at 21:50 UTC
Wind 20 kt from the East/Northeast
Temperature 7°C
Humidity 87%
Pressure 1015 hPa
Visibility 10 km or more

METAR: EGQM 202150Z AUTO 06020KT 9999 FEW033/// BKN070/// 07/05 Q1015 RERA

Time: 22:49 (22:49 UTC)


TAF: missing

Weather observations and forecasts of more than 4000 airports (METAR and TAF reports).

The available stations are represented by yellow and red dots on the map.

Hover mouse over dot to see the name of the station.

Then click to see weather observations and forecasts.

To change the map : click on the green buttons with a black cross to zoom in, on the green button with a dash to zoom out, or on the green arrows for adjacent maps.


METAR-TAF: